**Search for your results by entering your last name OR bib number OR search by age group to compare your stats with others
Individual Search
 
Bib:
Last Name:
All Participants Search
 
Top Ten Women
PlaceNameTimePace
1.Katie Casto Hynes18:56.936:04/M
2.Jenniffer Burton21:26.986:52/M
3.Vivienne Giessmann21:36.886:55/M
4.Jaime Alegnani21:39.696:56/M
5.Myrin Thompson21:56.547:02/M
6.Samantha Owen22:06.657:05/M
7.Christine Balz22:30.087:13/M
8.Jessie Gatterdam22:34.337:14/M
9.Gwen Packer22:55.237:21/M
10.Monica Munery23:06.777:24/M
Top Ten Men
PlaceNameTimePace
1.Patrick Hynes16:37.605:20/M
2.David Grieshaber16:51.005:24/M
3.Brandon Page17:04.355:28/M
4.Ali Faraji-Tajrishi17:33.285:38/M
5.Alex Beruscha17:36.005:38/M
6.Sean Mendes17:37.765:39/M
7.Jared Randall17:46.875:42/M
8.Andy Fentor17:51.365:43/M
9.Michael Farkas18:08.635:49/M
10.Stephen Salois18:56.826:04/M
Contact us for results help

Gallery of Events

Contact Us

Address:
172 Trademark Drive
Buda, Texas 78610

Phone:
(512) 386 - 7966

Email:
info@cadencesports.com